Tracking 29892 objects as of 21-Nov-2024
HD Live streaming from Space Station
objects crossing your sky now

FENGYUN 1C DEB

Track FENGYUN 1C DEB now!
10-day predictions


NORAD ID: 31210
Int'l Code: 1999-025BKQ
Perigee: 850.1 km
Apogee: 874.6 km
Inclination: 98.7 °
Period: 102.0 minutes
Semi major axis: 7233 km
RCS: 0.0059 m2 (small)
Launch date: May 10, 1999
Source: People's Republic of China (PRC)
Launch site: Taiyaun Space Center, China (TSC)

Note: This is SATELLITE DEBRIS
Your satellite tracking list
Your tracking list is empty




NASA's NSSDC Master Catalog

Two Line Element Set (TLE):
1 31210U 99025BKQ 24323.48256351  .00001075  00000-0  61897-3 0  9997
2 31210  98.7161 329.5407 0016936 180.1881 340.6920 14.11203591904759
Source of the keplerian elements: AFSPC